User: anonymous   Login
Location: Unspecified
(0.0000°N, 0.0000°E)
Time: 21:39:12
(UTC+00:00)
Language:

EGG - Orbit

View from above orbital plane
View from above orbital plane
View from above satellite
View from above satellite

Ground track
Ground track

The orbit data is extracted from the following two-line orbital elements,

1 41933U 98067KV  18048.90971751 +.00036892 +00000-0 +27691-3 0  9996
2 41933 051.6331 229.1182 0003640 122.5091 237.6259 15.72218224062038
Epoch (UTC): 17 February 2018 21:49:59
Eccentricity: 0.0003640
inclination: 51.6331°
perigee height: 350 km
apogee height: 355 km
right ascension of ascending node: 229.1182°
argument of perigee: 122.5091°
revolutions per day: 15.72218224
mean anomaly at epoch: 237.6259°
orbit number at epoch: 6203

The dashed part of the orbit path shows where the satellite is in the earth's shadow,  

DLR